NC0S Weather Reports


time (UTC)temp
F
wind
direction
speed
knots
gust
knots
rain 1hr
in
rain 24hr
in
rain mn
in
humidity
%
barometer
mb
20260502164031 60 28 0.9 2.6 0.00 0.00 0.00 35 1023.0
20260502163052 59 34 0.9 3.5 0.00 0.00 0.00 37 1023.1
20260502162032 59 43 0.9 3.5 0.00 0.00 0.00 38 1023.2
20260502161032 59 46 0.9 5.2 0.00 0.00 0.00 41 1023.1
20260502152032 57 324 0.9 1.7 0.00 0.00 0.00 45 1023.1
20260502151032 57 6 0.9 2.6 0.00 0.00 0.00 47 1023.1
20260502123032 41 0.0 0.0 0.00 0.00 0.00 72 1022.0
20260502122113 40 0.0 0.0 0.00 0.00 0.00 76 1022.1
20260502121032 39 0.0 0.0 0.00 0.00 0.00 77 1021.9
20260502115052 38 0.0 0.0 0.00 0.00 0.00 79 1021.6
20260502114033 37 0.0 0.0 0.00 0.00 0.00 80 1021.5
20260502113032 37 0.0 0.0 0.00 0.00 0.00 77 1021.5
20260502112032 37 0.0 0.0 0.00 0.00 0.00 77 1021.3
20260502111032 37 0.0 0.0 0.00 0.00 0.00 78 1021.4
20260502110032 37 0.0 0.0 0.00 0.00 0.00 78 1021.3
20260502105032 38 0.0 0.0 0.00 0.00 0.00 77 1021.4
20260502104032 38 0.0 0.0 0.00 0.00 0.00 77 1021.3
20260502103032 38 0.0 0.0 0.00 0.00 0.00 74 1021.3
20260502102032 39 0.0 0.0 0.00 0.00 0.00 73 1021.1
20260502101032 39 0.0 0.0 0.00 0.00 0.00 70 1020.9
20260502100112 40 0.0 0.0 0.00 0.00 0.00 70 1021.0
20260502091052 41 0.0 0.0 0.00 0.00 0.00 67 1020.7
20260502071032 46 0.0 0.9 0.00 0.00 0.00 52 1020.5
20260502070033 47 0.0 0.0 0.00 0.00 0.00 50 1020.4
20260502065032 48 0.0 0.0 0.00 0.00 0.00 48 1020.5
20260502064032 48 20 0.0 0.9 0.00 0.00 0.00 47 1020.5
20260502063052 48 0.0 0.0 0.00 0.00 0.00 47 1020.6
20260502062032 49 0.0 0.9 0.00 0.00 0.00 46 1020.6
20260502061032 49 0.0 0.9 0.00 0.00 0.00 45 1020.7
20260502055031 50 4 0.0 0.9 0.00 0.00 0.00 45 1020.7
20260502054152 50 16 0.0 3.5 0.00 0.00 0.00 45 1020.7
20260502053032 50 13 0.0 1.7 0.00 0.00 0.00 46 1020.5
20260502052032 51 17 0.0 0.9 0.00 0.00 0.00 45 1020.6
20260502051032 51 14 0.0 0.9 0.00 0.00 0.00 45 1020.4
20260502050032 51 15 0.0 1.7 0.00 0.00 0.00 46 1020.5
20260502045033 51 37 0.0 1.7 0.00 0.00 0.00 46 1020.5
20260502044032 51 0.0 0.0 0.00 0.00 0.00 46 1020.4
20260502043032 51 0.0 0.0 0.00 0.00 0.00 46 1020.4
20260502042052 52 23 0.0 0.9 0.00 0.00 0.00 46 1020.3
20260502041032 52 0.0 1.7 0.00 0.00 0.00 47 1020.2
20260502040112 52 0.0 0.9 0.00 0.00 0.00 48 1020.1
20260502035052 52 0.0 0.9 0.00 0.00 0.00 48 1020.0
20260502034032 53 0.0 0.0 0.00 0.00 0.00 47 1020.1
20260502033033 52 52 0.0 0.9 0.00 0.00 0.00 47 1019.9
20260502032052 52 0.0 0.0 0.00 0.00 0.00 50 1019.9
20260502031032 52 0.0 0.0 0.00 0.00 0.00 51 1019.8
20260502030032 52 0.0 0.0 0.00 0.00 0.00 51 1019.5
20260502025052 52 0.0 0.0 0.00 0.00 0.00 50 1019.4
20260502024032 52 0.0 0.0 0.00 0.00 0.00 50 1019.3
20260502023033 53 0.0 0.0 0.00 0.00 0.00 48 1019.2
20260502022052 54 0.0 0.0 0.00 0.00 0.00 48 1019.1
20260502021032 55 0.0 0.0 0.00 0.00 0.00 45 1018.9
20260502020032 56 0.0 0.9 0.00 0.00 0.00 45 1018.7
20260502015033 56 0.0 0.0 0.00 0.00 0.00 43 1018.6
20260502014032 57 0.0 0.0 0.00 0.00 0.00 42 1018.5
20260502013032 57 0.0 1.7 0.00 0.00 0.00 40 1018.2
20260502012052 58 26 0.0 0.9 0.00 0.00 0.00 39 1018.0
20260502011032 59 90 0.0 0.9 0.00 0.00 0.00 37 1018.0
20260502010032 59 357 0.9 6.1 0.00 0.00 0.00 36 1017.8
20260502005033 60 0.0 0.9 0.00 0.00 0.00 37 1017.6
20260502004032 60 71 0.0 0.9 0.00 0.00 0.00 36 1017.5
20260502003032 61 70 0.0 0.9 0.00 0.00 0.00 35 1017.4
20260502002052 61 92 0.0 1.7 0.00 0.00 0.00 35 1017.3
20260502001032 61 6 0.0 1.7 0.00 0.00 0.00 34 1017.2
20260502000032 61 353 0.9 3.5 0.00 0.00 0.00 34 1017.2
20260501235053 61 43 0.0 2.6 0.00 0.00 0.00 34 1017.2
20260501234032 62 52 0.9 6.1 0.00 0.00 0.00 33 1017.2
20260501233052 63 325 0.9 1.7 0.00 0.00 0.00 33 1017.2
20260501232032 63 1 0.0 3.5 0.00 0.00 0.00 33 1017.1
20260501231032 63 20 0.0 2.6 0.00 0.00 0.00 33 1017.2
20260501230032 63 340 0.0 1.7 0.00 0.00 0.00 32 1017.1
20260501225052 63 353 0.9 5.2 0.00 0.00 0.00 33 1017.3
20260501224032 64 327 0.9 3.5 0.00 0.00 0.00 32 1017.2
20260501223032 64 297 0.9 3.5 0.00 0.00 0.00 33 1017.2
20260501222032 64 350 0.9 2.6 0.00 0.00 0.00 33 1017.2
20260501221031 63 334 0.0 1.7 0.00 0.00 0.00 35 1017.3
20260501220032 64 348 0.9 2.6 0.00 0.00 0.00 34 1017.5
20260501215032 65 22 0.0 0.9 0.00 0.00 0.00 34 1017.4
20260501214032 64 337 0.9 3.5 0.00 0.00 0.00 35 1017.5
20260501213032 63 311 0.0 0.9 0.00 0.00 0.00 37 1017.7
20260501212032 64 325 0.9 1.7 0.00 0.00 0.00 35 1017.9
20260501211032 64 239 0.0 1.7 0.00 0.00 0.00 35 1018.0
20260501210032 65 0.0 1.7 0.00 0.00 0.00 35 1018.2
20260501205032 65 43 0.9 3.5 0.00 0.00 0.00 36 1018.5
20260501204032 66 53 0.0 1.7 0.00 0.00 0.00 34 1018.4
20260501203033 66 232 0.0 0.9 0.00 0.00 0.00 33 1018.6
20260501202052 65 324 0.0 2.6 0.00 0.00 0.00 33 1018.8
20260501201032 64 271 0.0 0.9 0.00 0.00 0.00 34 1018.9
20260501200032 65 235 0.0 1.7 0.00 0.00 0.00 33 1019.1
20260501195033 66 289 0.0 1.7 0.00 0.00 0.00 31 1019.2
20260501194033 65 345 0.0 1.7 0.00 0.00 0.00 34 1019.3
20260501193031 65 253 0.0 1.7 0.00 0.00 0.00 32 1019.3
20260501192032 65 324 0.0 0.9 0.00 0.00 0.00 34 1019.3
20260501191032 64 301 0.9 3.5 0.00 0.00 0.00 33 1019.3
20260501190032 64 291 0.0 1.7 0.00 0.00 0.00 33 1019.3
20260501185032 65 28 0.0 1.7 0.00 0.00 0.00 32 1019.5
20260501184112 65 312 0.9 2.6 0.00 0.00 0.00 30 1019.5
20260501183032 65 275 0.9 2.6 0.00 0.00 0.00 33 1019.7
20260501182032 65 69 0.0 2.6 0.00 0.00 0.00 33 1019.5
20260501181052 64 29 0.9 1.7 0.00 0.00 0.00 34 1019.7